Content
SEND FEEDBACK

Daily
Averages
Monthly
Summary
United States of America

NEW YORK, NEW YORK


Home > North America > United States > New York
Elevation: 131 feet     Latitude: 40 47N     Longitude: 073 58W

WEATHER
 
SELECT A DAY
Number of Records: 148,358;   Date Range: 11/1/95 - 9/20/14
 
SHARE

PRINT THIS DATA

[ ← Previous Day ]
WEATHER ALMANAC - MARCH 3, 2013
[ Next Day → ]
[ °C ]   °F
Weather ElementAverageHighLow
Temperature32.4 °F39 °F (2:51 pm)28.9 °F (5:51 am)
Dewpoint16.6 °F19.9 °F (1:51 am)14 °F (11:51 pm)
Humidity52.7 %66 % (2:51 am)41 % (2:51 pm)
Barometer29.72 in29.76 in (9:51 pm)29.66 in (2:51 pm)
Wind Speed7.7 mph10.4 mph (2:51 am)
Wind Gust23 mph (9:51 pm)
Weather ElementAverage
Visibility9.8 mi
Wind DirectionSSW (187 °)

Weather ElementTotal
Precipitation---
Heating Degree Days31.1 (Base 65)
Averaged from 23 records on March 3, 2013
WEATHER CONDITIONS BREAKOUT
WIND DIRECTION BREAKOUT
WEATHER BY HOUR - MARCH 3, 2013
[ °C ]   °F
Local TimeTemperatureDewpointHumidityBarometerVisibilityWind DirectionWind SpeedGust SpeedPrecipitationEventsConditions
1:51 AM30.9 °F19.9 °F64 %29.73 in10.0 miCalm0.00 inOvercast
2:51 AM30.0 °F19.9 °F66 %29.72 in6.0 miNW (310°)10.4 mph17.3 mph0.00 inSnowLight Snow
3:51 AM30.0 °F18.0 °F61 %29.72 in10.0 miVariable5.8 mph0.00 inOvercast
4:51 AM30.0 °F17.1 °F59 %29.72 in10.0 miNW (310°)5.8 mphOvercast
5:51 AM28.9 °F16.0 °F58 %29.73 in10.0 miNW (310°)10.4 mph18.4 mphOvercast
6:51 AM28.9 °F16.0 °F58 %29.73 in10.0 miNW (310°)10.4 mph17.3 mphOvercast
7:51 AM28.9 °F15.1 °F56 %29.74 in10.0 miVariable5.8 mphOvercast
8:51 AM30.0 °F16.0 °F56 %29.74 in10.0 miNW (320°)9.2 mphOvercast
9:51 AM30.0 °F15.1 °F54 %29.73 in10.0 miNW (310°)9.2 mph17.3 mphOvercast
10:51 AM32.0 °F16.0 °F52 %29.73 in10.0 miNW (320°)9.2 mphOvercast
11:51 AM33.1 °F16.0 °F50 %29.72 in10.0 miWest (280°)6.9 mph17.3 mphMostly Cloudy
12:51 PM36.0 °F16.0 °F44 %29.69 in10.0 miNW (310°)10.4 mphClear
1:51 PM37.9 °F17.1 °F43 %29.67 in10.0 miWNW (290°)9.2 mphPartly Cloudy
2:51 PM39.0 °F17.1 °F41 %29.66 in10.0 miVariable5.8 mph17.3 mphPartly Cloudy
3:51 PM39.0 °F17.1 °F41 %29.66 in10.0 miVariable4.6 mph19.6 mphScattered Clouds
4:51 PM37.0 °F18.0 °F46 %29.68 in10.0 miVariable5.8 mph19.6 mphPartly Cloudy
5:51 PM35.1 °F18.0 °F50 %29.70 in10.0 miVariable6.9 mph18.4 mphClear
6:51 PM34.0 °F17.1 °F50 %29.72 in10.0 miVariable5.8 mphMostly Cloudy
7:51 PM33.1 °F16.0 °F50 %29.73 in10.0 miNW (320°)8.1 mph19.6 mphMostly Cloudy
8:51 PM30.9 °F16.0 °F54 %29.75 in10.0 miNW (310°)10.4 mph18.4 mphClear
9:51 PM30.9 °F15.1 °F52 %29.76 in10.0 miVariable6.9 mph23.0 mphOvercast
10:51 PM30.0 °F15.1 °F54 %29.75 in10.0 miWNW (300°)10.4 mph20.7 mphClear
11:51 PM28.9 °F14.0 °F54 %29.76 in10.0 miWNW (300°)9.2 mph20.7 mphPartly Cloudy
Hourly data recorded from KNYC, located miles away from New York, New York







STORIES FROM OUR PARTNERS